Flag for South Korea

Past Weather in Incheon, South Korea — Yesterday and Last 2 Weeks

Currently: 34 °F. Light rain. Partly cloudy. (Weather station: Incheon International Airport, South Korea). See more current weather

Past Weather in Incheon — Graph

°F

Incheon Temperature Yesterday

Maximum temperature yesterday: 39 °F (at 1:30 pm)
Minimum temperature yesterday: 25 °F (at 12:30 am)
Average temperature yesterday: 32 °F

High & Low Weather Summary for the Past Weeks

 TemperatureHumidityPressure
High54 °F (Nov 21, 2:00 pm)87% (Nov 21, 7:00 am)30.66 "Hg (Nov 21, 7:00 am)
Low25 °F (Dec 4, 12:30 am)26% (Dec 1, 3:30 pm)30.01 "Hg (Nov 20, 5:00 am)
Average37 °F58%30.37 "Hg
* Reported Nov 20 5:00 am — Dec 5 5:00 am, Incheon. Weather by CustomWeather, © 2020

Note: Actual official high and low records may vary slightly from our data, if they occured in-between our weather recording intervals... More about our weather records

Incheon Weather History for the Previous 24 Hours

Scroll right to see more
 ConditionsComfort  
Time TempWeatherWind HumidityBarometerVisibility
5:00 am
Sat, Dec 5
34 °FPassing clouds.7 mph65%30.39 "HgN/A
4:30 am34 °FPassing clouds.5 mph65%30.39 "HgN/A
4:00 am34 °FPassing clouds.6 mph65%30.39 "HgN/A
3:30 am32 °FPartly cloudy.5 mph69%30.39 "HgN/A
3:00 am34 °FPassing clouds.5 mph65%30.39 "HgN/A
2:30 am34 °FPassing clouds.3 mph56%30.39 "HgN/A
2:00 am32 °FPassing clouds.6 mph60%30.39 "HgN/A
1:30 am32 °FPartly cloudy.5 mph64%30.39 "HgN/A
1:00 am32 °FPassing clouds.3 mph64%30.42 "HgN/A
12:30 am32 °FPassing clouds.2 mph64%30.42 "HgN/A
12:00 am34 °FPassing clouds.5 mph60%30.42 "HgN/A
11:30 pm
Fri, Dec 4
34 °FPassing clouds.5 mph56%30.42 "HgN/A
11:00 pm34 °FPassing clouds.5 mph60%30.42 "HgN/A
10:30 pm32 °FPassing clouds.5 mph64%30.42 "HgN/A
10:00 pm32 °FPassing clouds.2 mph60%30.42 "HgN/A
9:30 pm32 °FPassing clouds.5 mph60%30.42 "HgN/A
9:00 pm32 °FPassing clouds.5 mph60%30.42 "HgN/A
8:30 pm34 °FPassing clouds.6 mph56%30.42 "HgN/A
8:00 pm34 °FPassing clouds.5 mph56%30.42 "HgN/A
7:30 pm34 °FPassing clouds.3 mph60%30.42 "HgN/A
7:00 pm34 °FPassing clouds.2 mph56%30.42 "HgN/A
6:30 pm36 °FPassing clouds.1 mph52%30.42 "HgN/A
6:00 pm34 °FScattered clouds.5 mph60%30.39 "HgN/A
5:30 pm36 °FScattered clouds.5 mph56%30.39 "HgN/A
5:00 pm37 °FScattered clouds.6 mph48%30.39 "HgN/A
4:30 pm37 °FPassing clouds.8 mph48%30.39 "HgN/A
4:00 pm37 °FPassing clouds.12 mph45%30.39 "HgN/A
3:30 pm39 °FPassing clouds.10 mph42%30.39 "HgN/A
3:00 pm39 °FSunny.12 mph42%30.39 "Hg10 mi
2:30 pm39 °FSunny.13 mph36%30.39 "Hg10 mi
2:00 pm39 °FPassing clouds.9 mph33%30.39 "HgN/A
1:30 pm39 °FPassing clouds.8 mph39%30.39 "HgN/A
1:00 pm37 °FSunny.9 mph45%30.42 "Hg10 mi
12:30 pm37 °FPassing clouds.7 mph45%30.42 "HgN/A
12:00 pm37 °FSunny.8 mph48%30.45 "Hg10 mi
11:30 am36 °FSunny.7 mph52%30.45 "Hg10 mi
11:00 am36 °FPassing clouds.7 mph48%30.48 "HgN/A
10:30 am34 °FPassing clouds.7 mph48%30.45 "HgN/A
10:00 am34 °FSunny.8 mph48%30.48 "Hg10 mi
9:30 am34 °FSunny.7 mph51%30.45 "Hg10 mi
8:30 am30 °FClear.6 mph59%30.45 "Hg10 mi
8:00 am27 °FClear.7 mph64%30.45 "Hg10 mi
7:30 am27 °FClear.6 mph64%30.45 "Hg10 mi
7:00 am28 °FClear.7 mph59%30.45 "Hg10 mi
6:30 am28 °FClear.5 mph59%30.45 "Hg10 mi
6:00 am28 °FClear.7 mph64%30.45 "Hg10 mi
Weather by CustomWeather, © 2020

See weather overview